Location: Pine Mountain Observatory
(43.7910°N, 120.9377°W)
Time: 07:52:09
(UTC-08:00)

Envisat - Visible Passes

Search period start: 24 February 2018 00:00
Search period end: 06 March 2018 00:00
Orbit: 764 x 766 km, 98.2° (Epoch: 24 February)

Date Brightness Start Highest point End Pass type
(mag) Time Alt. Az. Time Alt. Az. Time Alt. Az.
24 Feb 3.1 19:04:16 10° SSE 19:09:11 54° ENE 19:14:09 10° N visible
24 Feb 5.4 20:44:58 10° SW 20:48:32 19° W 20:52:07 10° NW visible
25 Feb 3.9 18:28:33 10° ESE 18:32:42 26° ENE 18:36:53 10° N visible
25 Feb 4.2 20:06:46 10° SSW 20:11:32 41° W 20:16:19 10° NNW visible
26 Feb 2.9 19:29:38 10° SSE 19:34:43 88° W 19:39:49 10° NNW visible
26 Feb 6.0 21:13:25 10° W 21:14:27 11° W 21:15:29 10° WNW visible
27 Feb 3.3 18:53:20 10° SE 18:58:06 43° ENE 19:02:54 10° N visible
27 Feb 5.1 20:33:14 10° SSW 20:37:17 24° W 20:41:21 10° NW visible
28 Feb 4.2 18:17:54 10° ESE 18:21:41 22° ENE 18:25:28 10° NNE visible
28 Feb 3.8 19:55:25 10° S 20:00:20 51° W 20:05:18 10° NNW visible
01 Mar 2.9 19:18:33 10° SSE 19:23:35 74° ENE 19:28:40 10° N visible
01 Mar 5.8 21:00:38 10° WSW 21:03:10 14° W 21:05:42 10° WNW visible
02 Mar 3.6 18:42:28 10° SE 18:47:02 35° ENE 18:51:36 10° N visible
02 Mar 4.8 20:21:40 10° SSW 20:26:04 30° W 20:30:30 10° NW visible
03 Mar 3.3 19:44:09 10° S 19:49:10 65° WSW 19:54:14 10° NNW visible
04 Mar 3.0 19:07:31 10° SSE 19:12:29 59° ENE 19:17:28 10° N visible
04 Mar 5.6 20:48:34 10° SW 20:51:54 17° W 20:55:14 10° NW visible
05 Mar 3.9 18:31:42 10° ESE 18:35:59 28° ENE 18:40:17 10° N visible
05 Mar 4.4 20:10:11 10° SSW 20:14:51 37° W 20:19:34 10° NNW visible
